Gainesville, FL

1:19 PM EDT on July 22, 2017 (GMT -0400)
Gainesville Regional

Weather History for KGNV - January, 2014

Change the Weather History Date:

Monday, January 20, 2014

  Actual Average Record
Temperature  
Mean Temperature 50 °F 54 °F  
Max Temperature 67 °F 66 °F 85 °F (1937)
Min Temperature 33 °F 42 °F 19 °F (1977)
Degree Days  
Heating Degree Days 15 11  
Month to date heating degree days 272 228  
Since 1 July heating degree days 537 685  
Cooling Degree Days 0 0  
Month to date cooling degree days 10 0  
Year to date cooling degree days 10 0  
Moisture  
Dew Point 38 °F    
Average Humidity 65    
Maximum Humidity 100    
Minimum Humidity 29    
Precipitation  
Precipitation 0.00 in 0.12 in 1.65 in (1988)
Month to date precipitation 4.59 1.98  
Year to date precipitation 4.59 1.98  
Snow  
Snow 0.00 in 0.00 in 0.00 in ()
Month to date snowfall 0.0 0.0  
Since 1 July snowfall 0.0 0.0  
Snow Depth 0.00 in    
Sea Level Pressure  
Sea Level Pressure 30.11 in    
Wind  
Wind Speed 4 mph (WSW)    
Max Wind Speed 13 mph    
Max Gust Speed 30 mph    
Visibility 5 miles    
Events Fog    
T = Trace of Precipitation, MM = Missing Value Source: NWS Daily Summary

Daily Weather History Graph

Daily Weather History Graph

Search for Another Location

Airport or City:

Trip Planner

Search our weather history database for the weather conditions in past years. The results will help you decide how hot, cold, wet, or windy it might be!

Date:

Astronomy

Jan. 20, 2014 Rise Set
Actual Time 7:24 AM EST 5:56 PM EST
Civil Twilight 6:58 AM EST 6:22 PM EST
Nautical Twilight 6:29 AM EST 6:51 PM EST
Astronomical Twilight 6:00 AM EST 7:19 PM EST
Moon 10:06 PM EST (1/20) 9:44 AM EST (1/20)
Length of Visible Light 11h 23m
Length of Day
10h 32m
Waning Gibbous, 83% of the Moon is Illuminated
Jan 20
Waning Gibbous
Jan 24
Last Quarter
Jan 30
New
Feb 6
First Quarter
Feb 14
Full

Hourly Weather History & Observations

Time (EST) Temp. Windchill Dew Point Humidity Pressure Visibility Wind Dir Wind Speed Gust Speed Precip Events Conditions
12:05 AM 46.9 °F - 46.9 °F 100% 30.13 in 0.8 mi WSW 3.5 mph - N/A   Scattered Clouds
12:14 AM 46.9 °F - 46.9 °F 100% 30.13 in 0.5 mi Calm Calm - N/A Fog Fog
12:22 AM 46.9 °F - 46.9 °F 100% 30.13 in 0.2 mi Calm Calm - N/A Fog Fog
12:43 AM 45.0 °F 43.5 °F 45.0 °F 100% 30.13 in 0.2 mi WSW 3.5 mph - N/A Fog Fog
12:53 AM 43.0 °F - 43.0 °F 100% 30.13 in 0.2 mi Calm Calm - N/A Fog Fog
1:28 AM 42.1 °F - 41.0 °F 96% 30.13 in 0.2 mi Calm Calm - N/A Fog Fog
1:53 AM 41.0 °F 39.0 °F 41.0 °F 100% 30.13 in 0.2 mi West 3.5 mph - N/A Fog Fog
2:03 AM 41.0 °F - 39.9 °F 96% 30.12 in 0.2 mi Calm Calm - N/A Fog Fog
2:53 AM 39.0 °F - 37.9 °F 96% 30.12 in 0.5 mi Calm Calm - N/A Fog Fog
3:04 AM 39.0 °F - 37.9 °F 96% 30.13 in 0.5 mi Calm Calm - N/A Fog Fog
3:37 AM 39.0 °F - 37.9 °F 96% 30.13 in 2.5 mi Calm Calm - N/A   Overcast
3:44 AM 37.9 °F - 37.9 °F 100% 30.13 in 7.0 mi Calm Calm - N/A   Overcast
3:53 AM 39.0 °F - 37.9 °F 96% 30.14 in 4.0 mi Calm Calm - N/A   Mostly Cloudy
4:02 AM 39.0 °F - 37.9 °F 96% 30.13 in 8.0 mi Calm Calm - N/A   Scattered Clouds
4:27 AM 37.9 °F - 37.9 °F 100% 30.13 in 1.8 mi Calm Calm - N/A   Clear
4:38 AM 39.0 °F - 37.9 °F 96% 30.13 in 0.8 mi Calm Calm - N/A   Clear
4:41 AM 37.9 °F - 37.0 °F 97% 30.13 in 1.0 mi Calm Calm - N/A   Mist
4:53 AM 37.0 °F - 36.0 °F 96% 30.13 in 1.0 mi Calm Calm - N/A   Mist
4:59 AM 37.0 °F - 36.0 °F 96% 30.13 in 4.0 mi Calm Calm - N/A   Mostly Cloudy
5:26 AM 36.0 °F - 35.1 °F 97% 30.13 in 1.8 mi Calm Calm - N/A   Mostly Cloudy
5:43 AM 35.1 °F - 35.1 °F 100% 30.13 in 0.5 mi Calm Calm - N/A Fog Fog
5:53 AM 36.0 °F - 35.1 °F 97% 30.13 in 1.8 mi Calm Calm - N/A   Mostly Cloudy
6:00 AM 36.0 °F - 35.1 °F 97% 30.13 in 2.0 mi Calm Calm - N/A   Overcast
6:08 AM 35.1 °F - 34.0 °F 96% 30.13 in 1.2 mi Calm Calm - N/A   Overcast
6:17 AM 35.1 °F - 34.0 °F 96% 30.13 in 0.5 mi Calm Calm - N/A Fog Fog
6:39 AM 35.1 °F - 35.1 °F 100% 30.13 in 0.2 mi Calm Calm - N/A Fog Fog
6:53 AM 35.1 °F - 35.1 °F 100% 30.14 in 0.5 mi Calm Calm - N/A Fog Fog
7:17 AM 35.1 °F - 34.0 °F 96% 30.14 in 0.8 mi Calm Calm - N/A   Mist
7:23 AM 35.1 °F - 34.0 °F 96% 30.14 in 1.2 mi Calm Calm - N/A   Scattered Clouds
7:27 AM 34.0 °F - 33.1 °F 96% 30.14 in 5.0 mi Calm Calm - N/A   Scattered Clouds
7:53 AM 35.1 °F - 35.1 °F 100% 30.15 in 9.0 mi Calm Calm - N/A   Clear
8:53 AM 44.1 °F - 43.0 °F 96% 30.15 in 10.0 mi Calm Calm - N/A   Clear
9:53 AM 53.1 °F - 46.0 °F 77% 30.16 in 10.0 mi Calm Calm - N/A   Clear
10:53 AM 59.0 °F - 36.0 °F 42% 30.16 in 10.0 mi West 6.9 mph - N/A   Clear
11:53 AM 62.1 °F - 36.0 °F 38% 30.13 in 10.0 mi West 8.1 mph - N/A   Clear
12:53 PM 64.0 °F - 36.0 °F 35% 30.09 in 10.0 mi WSW 8.1 mph - N/A   Clear
1:53 PM 64.9 °F - 34.0 °F 32% 30.06 in 10.0 mi SW 6.9 mph 16.1 mph N/A   Clear
2:53 PM 66.9 °F - 34.0 °F 30% 30.04 in 10.0 mi SW 6.9 mph 16.1 mph N/A   Clear
3:53 PM 66.9 °F - 35.1 °F 31% 30.04 in 10.0 mi WSW 9.2 mph - N/A   Clear
4:53 PM 64.0 °F - 37.0 °F 37% 30.04 in 10.0 mi WSW 10.4 mph - N/A   Clear
5:53 PM 59.0 °F - 37.0 °F 44% 30.04 in 10.0 mi WSW 8.1 mph - N/A   Clear
6:53 PM 55.9 °F - 39.0 °F 53% 30.05 in 10.0 mi WSW 8.1 mph - N/A   Clear
7:53 PM 52.0 °F - 41.0 °F 66% 30.05 in 10.0 mi WSW 5.8 mph - N/A   Clear
8:53 PM 51.1 °F - 43.0 °F 74% 30.05 in 10.0 mi WSW 4.6 mph - N/A   Clear
9:53 PM 50.0 °F - 43.0 °F 77% 30.05 in 10.0 mi WSW 3.5 mph - N/A   Clear
10:53 PM 50.0 °F - 43.0 °F 77% 30.06 in 10.0 mi SSW 4.6 mph - N/A   Clear
11:53 PM 48.9 °F - 43.0 °F 80% 30.03 in 10.0 mi SW 5.8 mph - N/A   Clear